Other Public Products
Issued by NWS Grand Forks, ND

Home | Current Version | Previous Version | Text Only | Print | Product List | Glossary Off
Versions: 1 2 3 4 5 6 7 8 9 10 11 12 13 14 15 16 17 18 19 20 21 22 23 24 25 26 27 28 29 30 31 32 33 34 35 36 37 38 39 40 41 42 43 44 45 46 47 48 49 50

000
FPUS83 KFGF 280610
OPUFGF
PRAIRIE TO PINES WEATHER ROUNDUP
NATIONAL WEATHER SERVICE EASTERN NORTH DAKOTA/GRAND FORKS ND
100 AM CDT TUE JUL 28 2015

 **SATELLITE DATA USED TO AUGMENT SKY COVER AT AUTOMATED STATIONS**
 *****  WEATHER ACROSS EASTERN NORTH DAKOTA  *****

CITY           SKY/WX    TMP DP  RH WIND       PRES   REMARKS
GRAND FORKS    PTCLDY    75  70  84 SE10      29.70F
6HR MIN TEMP:  75; 6HR MAX TEMP:  85;

GRAND FORKS AF PTCLDY    75  71  88 S12       29.71F
GRAND CITY NWS   N/A     75 N/A N/A SE9         N/A
BUXTON         NOT AVBL
DEVILS LAKE    MOCLDY    77  68  73 SE15G21   29.65F
6HR MIN TEMP:  77; 6HR MAX TEMP:  82;

FARGO          CLEAR     78  72  81 SE17G26   29.71F
6HR MIN TEMP:  78; 6HR MAX TEMP:  88;

WAHPETON ARPT  CLEAR     73  68  83 SE13G20   29.74F
$$

 *****  WEATHER ACROSS CENTRAL AND WESTERN NORTH DAKOTA  *****

CITY           SKY/WX    TMP DP  RH WIND       PRES   REMARKS
JAMESTOWN      MOCLDY    76  73  91 SE14      29.66F
6HR MIN TEMP:  76; 6HR MAX TEMP:  87;

BISMARCK       CLOUDY    70  62  76 S10       29.59F
6HR MIN TEMP:  70; 6HR MAX TEMP:  88; 6HR PCP: TRACE;

MINOT          LGT RAIN  72  61  68 SW29G39   29.58S
6HR MIN TEMP:  72; 6HR MAX TEMP:  88; 6HR PCP: TRACE;

MINOT AFB      LGT RAIN  76  65  69 SW21G29   29.57F
6HR MIN TEMP:  76; 6HR MAX TEMP:  86; 6HR PCP: TRACE;

GARRISON         N/A     70  62  76 W8        29.64R
6HR MIN TEMP:  70; 6HR MAX TEMP:  84;

WILLISTON      CLOUDY    63  59  87 W14G22    29.58F
6HR MIN TEMP:  63; 6HR MAX TEMP:  91; 6HR PCP:  0.33;

DICKINSON      MOCLDY    61  56  83 W18       29.71R
6HR MIN TEMP:  61; 6HR MAX TEMP:  88; 6HR PCP: TRACE;

HETTINGER      MOCLDY    61  56  83 W21G29    29.76R
6HR MIN TEMP:  60; 6HR MAX TEMP:  83; 6HR PCP: TRACE;

$$

 *****  OTHER OBSERVATIONS NORTHEAST NORTH DAKOTA  *****

CITY           SKY/WX    TMP DP  RH WIND       PRES   REMARKS
WALHALLA       FAIR      75  75 100 MISG      29.70F
LANGDON        MOCLDY    73  72  94 SE15G21   29.71F
CAVALIER       FAIR      75  72  88 SE8       29.70F
GRAFTON        MOCLDY    75  73  94 SE9       29.72F
CANDO          NOT AVBL
FORT TOTTEN      N/A     76  73  88 SE12      29.95
ROLLA          FAIR      73  73 100 SE16G22   29.65F
RUGBY          NOT AVBL
 ***** THE ABOVE OBSERVATIONS ARE NON NWS ARE NOT QUALITY
        CONTROLLED AND MAY MIS-REPORT RAIN FOR SNOW...
$$

 *****  OTHER OBSERVATIONS SOUTHEAST NORTH DAKOTA *****

CITY           SKY/WX    TMP DP  RH WIND       PRES   REMARKS
COOPERSTOWN    NOT AVBL
VALLEY CITY    CLOUDY    75  75 100 SE14G21   29.70F
OAKES            N/A     75  75 100 SE10      29.69F
GWINNER        CLOUDY    77  73  88 SE13      29.72S
BUFFALO        NOT AVBL
WYNDMERE         N/A     75  72  88 SE9         N/A
 ***** THE ABOVE OBSERVATIONS ARE NON NWS ARE NOT QUALITY
       CONTROLLED AND MAY MIS-REPORT RAIN FOR SNOW...
$$

  *****  WEATHER ACROSS NORTHERN MINNESOTA  *****

CITY           SKY/WX    TMP DP  RH WIND       PRES   REMARKS
FLAG ISLAND    CLEAR     79  70  73 SE14      29.80F
WARROAD        PTCLDY    73  70  88 SE7       29.81F
ROSEAU         PTCLDY    73  68  83 SE8       29.79F
HALLOCK        PTCLDY    75  72  88 SE12      29.72F
THF RVR FALLS  PTCLDY    73  70  88 SE9       29.77F
6HR MIN TEMP:  73; 6HR MAX TEMP:  82;

HALSTAD        NOT AVBL
FOSSTON        CLEAR     73  68  83 SE10      29.79F
BAUDETTE       PTCLDY    74  66  76 SE8       29.83F
6HR MIN TEMP:  72; 6HR MAX TEMP:  84;

WASKISH        PTCLDY    72  68  88 E7        29.83F
CROOKSTON      PTCLDY    73  72  94 SE9       29.75F
$$
  *****  WEATHER ACROSS CENTRAL AND WEST MINNESOTA  *****

CITY           SKY/WX    TMP DP  RH WIND       PRES   REMARKS
BEMIDJI        PTCLDY    74  70  87 SE14      29.83F
PARK RAPIDS    CLEAR     75  70  84 SE14      29.83F
6HR MIN TEMP:  75; 6HR MAX TEMP:  86;

WADENA         MOCLDY    73  70  88 SE10      29.82F
DETROIT LAKES  CLOUDY    75  72  88 SE12G21   29.80F
MOORHEAD       CLEAR     75  72  88 SE10G16   29.73F
FERGUS FALLS   CLEAR     75  70  83 SE18      29.75F
ELBOW LAKE     FAIR      74  70  87 SE14      29.77F
6HR MIN TEMP:  74; 6HR MAX TEMP:  83;

MORRIS MN      CLEAR     73  70  88 SE15      29.77F
STAPLES        PTCLDY    73  70  88 SE7       29.84F
WHEATON        CLEAR     72  70  94 SE13      29.75F
$$
  *****  WEATHER ELSEWHERE ACROSS MINNESOTA  *****

CITY           SKY/WX    TMP DP  RH WIND       PRES   REMARKS
DULUTH         MOCLDY    74  64  71 SE7       29.95F
6HR MIN TEMP:  69; 6HR MAX TEMP:  81;

INTRNTL FALLS  CLEAR     73  66  78 SE6       29.87F
6HR MIN TEMP:  72; 6HR MAX TEMP:  85;

ELY            CLEAR     68  61  77 S5        29.96S
CLOQUET        CLOUDY    70  64  83 CALM      29.94F
BRAINERD       PTCLDY    74  70  87 SE7       29.87F
6HR MIN TEMP:  74; 6HR MAX TEMP:  83;

HIBBING        CLEAR     66  63  90 SE7       29.92F
6HR MIN TEMP:  66; 6HR MAX TEMP:  83;

ALEXANDRIA     MOCLDY    74  71  91 SE14      29.83F
6HR MIN TEMP:  74; 6HR MAX TEMP:  83;

SAINT CLOUD    CLEAR     74  72  93 SE7       29.86F
6HR MIN TEMP:  74; 6HR MAX TEMP:  84;

MINNEAPOLIS    PTCLDY    76  71  85 SE10      29.89F
6HR MIN TEMP:  76; 6HR MAX TEMP:  84;

$$

  *****  WEATHER ACROSS SOUTH DAKOTA  *****

CITY           SKY/WX    TMP DP  RH WIND       PRES   REMARKS
SIOUX FALLS    LGT RAIN  75  70  84 S17G24    29.77F
6HR MIN TEMP:  75; 6HR MAX TEMP:  84; 6HR PCP:  0.01;

BROOKINGS      CLOUDY    73  70  88 SE18      29.79F THUNDER
WATERTOWN      CLOUDY    76  72  87 SE14G22   29.73F
6HR MIN TEMP:  76; 6HR MAX TEMP:  84;

HURON          MOCLDY    79  75  87 SE18G29   29.63F THUNDER
6HR MIN TEMP:  79; 6HR MAX TEMP:  85;

SISSETON         N/A     74  71  91 S10       29.71F
ABERDEEN       CLOUDY    78  72  81 SE14      29.65F
6HR MIN TEMP:  78; 6HR MAX TEMP:  87;

MITCHELL       MOCLDY    79  75  87 SE23G31   29.68F
PIERRE         LGT RAIN  68  65  90 S6G22     29.65S
6HR MIN TEMP:  67; 6HR MAX TEMP:  93; 6HR PCP:  0.32;

MOBRIDGE       CLOUDY    70  65  84 E20G26    29.54F
RAPID CITY     PTCLDY    63  54  72 NW23G35   29.81R
6HR MIN TEMP:  63; 6HR MAX TEMP:  70; 6HR PCP:  0.74;

$$

  *****  SOME WEATHER IN NEARBY STATES *****

CITY           SKY/WX    TMP DP  RH WIND       PRES   REMARKS
GLASGOW MT     LGT RAIN  58  55  90 W15       29.66F
6HR MIN TEMP:  57; 6HR MAX TEMP:  78; 6HR PCP:  0.47;

GREAT FALLS MT CLOUDY    51  48  89 SW13      30.00S
6HR MIN TEMP:  50; 6HR MAX TEMP:  53; 6HR PCP:  0.14;

CHEYENNE WY    CLEAR     66  34  30 NW25G39   30.04R
6HR MIN TEMP:  66; 6HR MAX TEMP:  90;

SCOTTSBLUFF NE CLEAR     68  52  56 NW9       29.87R
6HR MIN TEMP:  67; 6HR MAX TEMP:  85; 6HR PCP:  0.31;

OMAHA NE       MOCLDY    78  71  79 SE16      29.83F
6HR MIN TEMP:  77; 6HR MAX TEMP:  85;

DES MOINES IA  PTCLDY    74  69  85 SE6       29.90F
6HR MIN TEMP:  72; 6HR MAX TEMP:  77;

DAVENPORT IA   CLEAR     71  69  93 E6        29.97R
6HR MIN TEMP:  70; 6HR MAX TEMP:  81;

CHICAGO IL     MOCLDY    74  67  78 E6        29.99F
6HR MIN TEMP:  74; 6HR MAX TEMP:  81;

EAU CLAIRE WI  CLEAR     73  66  78 SE5       29.95S
6HR MIN TEMP:  73; 6HR MAX TEMP:  84;

LA CROSSE WI   CLEAR     73  69  87 E8        29.95F
6HR MIN TEMP:  73; 6HR MAX TEMP:  86;

$$

  *****  SOME NATIONAL WEATHER *****

CITY           SKY/WX    TMP DP  RH WIND       PRES   REMARKS
LA GUARDIA NY  CLEAR     77  67  71 SW8       30.00F


USA.gov is the U.S. government's official web portal to all federal, state and local government web resources and services.